Spokane, WA
on Thursday, November 22, 2012

Thursday
Previous Day Next Day
Daily Summary
 ActualAverageRecord
Temperature
Mean Temperature °F 33°F  
Max Temperature 41°F 38°F 57°F (1933)
Min Temperature 29°F 28°F -5°F (2003)
Degree Days
Heating Degree Days 30 32  
Month to date heating degree days 551 611  
Since 1 July heating degree days 1157 1399  
Cooling Degree Days 0 0  
Month to date cooling degree days 0 0  
Year to date cooling degree days 535 450  
Moisture
Dew Point 29°F   
Average Humidity 75    
Maximum Humidity 100    
Minimum Humidity 49    
Precipitation
Precipitation 0.00 in 0.08 in 1.03 in (1901)
Month to date precipitation 2.66 1.64  
Year to date precipitation 18.16 13.60  
Snow
Snow 0.00 in 0.40 in 7.50 in (2010)
Month to date snowfall 5.9 4.4  
Since 1 July snowfall 5.9 4.5  
Since 1 September snowfall 5.9 4.5  
Snow Depth 0.00 in   
Wind
Wind Speed 7 mph   
Max Wind Speed 18 mph   
Max Gust Speed 23 mph   
Visibility 10 miles   
Events     

Key: T is trace of precipitation, MM is missing value
Source: NWS Daily Summary
Time(PST)TemperatureDew PointHumidity Pressure Visibility Wind DirectionWind SpeedGust SpeedPrecipitationEvents Conditions
12:07 AM 32.0°F 30.2°F 93% 30.16 in 10.0 miles SSW 12.7 mph - N/A   Partly Cloudy
12:53 AM 32.0°F 28.9°F 88% 30.23 in 10.0 miles SSW 16.1 mph - N/A   Scattered Clouds
1:53 AM 32.0°F 28.9°F 88% 30.27 in 10.0 miles SSW 15.0 mph - N/A   Partly Cloudy
2:53 AM 30.9°F 28.9°F 92% 30.30 in 10.0 miles South 5.8 mph - N/A   Partly Cloudy
3:53 AM 30.9°F 28.9°F 92% 30.32 in 10.0 miles SSW 9.2 mph - N/A   Partly Cloudy
4:53 AM 28.9°F 28.0°F 96% 30.36 in 10.0 miles South 5.8 mph - N/A   Scattered Clouds
5:53 AM 30.0°F 28.9°F 96% 30.40 in 7.0 miles SSE 8.1 mph - N/A   Mostly Cloudy
6:53 AM 30.0°F 28.9°F 96% 30.42 in 10.0 miles SSE 6.9 mph - N/A   Overcast
7:23 AM 30.2°F 28.4°F 93% 30.37 in 10.0 miles SSE 9.2 mph - N/A   Mostly Cloudy
7:53 AM 30.0°F 28.9°F 96% 30.45 in 10.0 miles SSE 6.9 mph - N/A   Mostly Cloudy
8:53 AM 33.1°F 30.0°F 89% 30.46 in 10.0 miles SSE 4.6 mph - N/A   Mostly Cloudy
9:50 AM 42.8°F 24.8°F 49% 30.25 in 10.0 miles Calm Calm - N/A   Partly Cloudy
9:53 AM 35.1°F 30.0°F 82% 30.49 in 10.0 miles SSE 4.6 mph - N/A   Mostly Cloudy
10:53 AM 37.0°F 30.0°F 76% 30.48 in 10.0 miles SE 5.8 mph - N/A   Mostly Cloudy
11:53 AM 39.0°F 30.0°F 70% 30.49 in 10.0 miles SSE 8.1 mph - N/A   Mostly Cloudy
12:53 PM 39.9°F 28.9°F 65% 30.47 in 10.0 miles SSE 6.9 mph - N/A   Mostly Cloudy
1:53 PM 41.0°F 28.0°F 60% 30.47 in 10.0 miles SE 6.9 mph - N/A   Mostly Cloudy
2:53 PM 41.0°F 27.0°F 57% 30.47 in 10.0 miles SE 5.8 mph - N/A   Mostly Cloudy
3:53 PM 39.0°F 28.9°F 67% 30.47 in 10.0 miles Calm Calm - N/A   Mostly Cloudy
4:53 PM 37.9°F 28.9°F 70% 30.47 in 10.0 miles East 4.6 mph - N/A   Scattered Clouds
5:53 PM 36.0°F 30.0°F 79% 30.46 in 10.0 miles ENE 5.8 mph - N/A   Scattered Clouds
6:53 PM 35.1°F 30.9°F 85% 30.46 in 10.0 miles ENE 4.6 mph - N/A   Overcast
7:53 PM 35.1°F 30.0°F 82% 30.44 in 10.0 miles ENE 5.8 mph - N/A   Mostly Cloudy
8:53 PM 34.0°F 30.0°F 85% 30.43 in 10.0 miles ENE 6.9 mph - N/A   Scattered Clouds
9:53 PM 33.1°F 28.9°F 85% 30.42 in 10.0 miles NE 6.9 mph - N/A   Scattered Clouds
10:53 PM 33.1°F 30.0°F 89% 30.41 in 10.0 miles NE 5.8 mph - N/A   Mostly Cloudy
11:53 PM 33.1°F 30.0°F 89% 30.40 in 10.0 miles NE 5.8 mph - N/A   Overcast
Moon Phase
Nov. 22 Nov. 28 Dec. 06 Dec. 13 Dec. 20
Sunrise:07:06 AM (PST) Moon Rise:01:13 PM (PST)11/22
Sunset:04:06 PM (PST) Moon Set:01:09 AM (PST)11/22

Copyright © 2014 The Weather Underground, Inc.